Flag for South Africa Weather past 2 weeks in Rustenburg, South Africa

Now
61 °F

Passing clouds.


Feels Like: 61 °F
Forecast: 42 / 68 °F
Wind: 7 mph from Northeast

Location: Lanseria Civ / Mil

Current Time: Jul 28, 2014 at 11:22:06 AM

Latest Report: Jul 28, 2014 at 10:49 AM


Visibility: N/A

Pressure: 30.51 "Hg

Humidity: 31%

Dew point: 30 °F

Location of RustenburgLocation

Historic Weather in Rustenburg — Graph

°F

Rustenburg temperature yesterday

Maximum temperature yesterday: 66 °F (at 3:00 PM)
Minimum temperature yesterday: 36 °F (at 5:00 AM)
Average temperature yesterday: 51 °F

Past Weeks' High & Low Weather Summary

 TemperatureHumidityPressure
High75 °F (Jul 24, 1:00 PM)93% (Jul 15, 7:00 AM)30.54 "Hg (Jul 15, 7:00 AM)
Low34 °F (Jul 20, 5:00 AM)9% (Jul 27, 4:00 PM)30.07 "Hg (Jul 18, 3:00 PM)
Average53 °F40%30.34 "Hg
* Reported Jul 13 10:00 AM — Jul 28 10:00 AM, Rustenburg, Weather by CustomWeather, © 2014

Note: Actual official high and low records may vary slightly from our data, if they occured in-between our weather recording intervals... More about our weather records

Advertising

Rustenburg weather history for previous 24 hours

 ConditionsComfort  
Time TempWeatherWind HumidityBarometerVisibility
10:00 AM
Jul 28
57 °FSunny.2 mph29%30.54 "Hg10 mi
9:00 AM46 °FSunny.No wind40%30.51 "Hg10 mi
8:00 AM41 °FSunny.No wind45%30.48 "Hg10 mi
7:00 AM34 °FSunny.2 mph60%30.48 "Hg10 mi
6:00 AM36 °FSunny.3 mph56%30.45 "Hg10 mi
5:00 AM34 °FClear.3 mph56%30.45 "Hg10 mi
4:00 AM39 °FChilly.No wind45%30.42 "HgN/A
3:00 AM39 °FChilly.No wind42%30.42 "HgN/A
2:00 AM43 °FQuite cool.3 mph34%30.42 "HgN/A
1:00 AM43 °FQuite cool.No wind34%30.42 "HgN/A
12:00 AM45 °FQuite cool.No wind31%30.45 "HgN/A
11:00 PM
Jul 27
48 °FCool.No wind27%30.45 "HgN/A
10:00 PM52 °FPassing clouds.3 mph22%30.42 "HgN/A
9:00 PM50 °FClear.No wind22%30.42 "Hg10 mi
8:00 PM54 °FPassing clouds.6 mph19%30.42 "HgN/A
7:00 PM57 °FClear.7 mph14%30.39 "Hg10 mi
6:00 PM63 °FClear.No wind11%30.36 "Hg10 mi
5:00 PM66 °FClear.No wind10%30.36 "Hg10 mi
4:00 PM66 °FPassing clouds.5 mph9%30.36 "HgN/A
3:00 PM66 °FSunny.2 mph11%30.36 "Hg10 mi
2:00 PM64 °FPassing clouds.5 mph12%30.36 "HgN/A
1:00 PM63 °FSunny.7 mph13%30.39 "Hg10 mi
12:00 PM59 °FPassing clouds.9 mph18%30.42 "HgN/A
11:00 AM55 °FPassing clouds.9 mph21%30.45 "HgN/A
Weather by CustomWeather, © 2014

See weather overviewHow to use our weather pages